Location: Arboyeti
(42.1122°N, 44.6017°E)
Time: 16:37:08
(UTC+00:00)

Cosmos 1140 Rocket - Pass Details

Date: 19 April 2021
Orbit: 745 x 767 km, 74.1° (Epoch: 06 May)

Event Time Altitude Azimuth Distance (km) Brightness Sun altitude
Exits shadow 17:16:58 26° 134° (SE) 1,453 4.3 -15.9°
Maximum altitude 17:18:36 31° 101° (E) 1,283 4.2 -16.2°
Drops below altitude 10° 17:23:05 10° 40° (NE) 2,266 5.9 -16.9°
Sets 17:25:39 0° 30° (NNE) 3,195 6.8 -17.3°
